Regional Weather Roundup
Issued by NWS

Home | Current Version | Previous Version | Graphics & Text | Print | Product List | Glossary On
Versions: 1 2 3 4 5 6 7 8 9 10 11 12 13 14 15 16 17 18 19 20 21 22 23 24 25 26 27 28
000
ASUS45 KPSR 011710
RWRAZ

ARIZONA HOURLY REGIONAL WEATHER ROUNDUP
NATIONAL WEATHER SERVICE PHOENIX AZ
1000 AM MST SUN MAY 01 2016

NOTE: FAIR INDICATES FEW OR NO CLOUDS BELOW 12,000 FEET WITH NO
SIGNIFICANT WEATHER AND/OR OBSTRUCTIONS TO VISIBILITY.

AZZ001>003-036-011800-
NORTHWEST ARIZONA

CITY           SKY/WX    TMP DP  RH WIND       PRES   REMARKS
BULLHEAD CITY  SUNNY     73  45  35 N17G23    29.89R
KINGMAN        CLOUDY    57  43  59 N6        29.94R
$$

AZZ004>008-015-016-018-011800-
NORTH CENTRAL ARIZONA

CITY           SKY/WX    TMP DP  RH WIND       PRES   REMARKS
GRAND CANYON   CLOUDY    44  31  60 E13       30.00R
WILLIAMS       PTSUNNY   43  37  81 NE12G18   30.06R
PRESCOTT       CLOUDY    49  42  77 VRB3      29.97R
FLAGSTAFF      CLOUDY    35  34  96 S6        29.99R WCI  30
PAYSON         CLOUDY    50  39  66 VRB7G17   29.99R
PAGE           LGT RAIN  49  37  63 E9G24     30.01R
$$

AZZ009>014-017-011800-
NORTHEAST ARIZONA

CITY           SKY/WX    TMP DP  RH WIND       PRES   REMARKS
WINSLOW        LGT RAIN  46  41  82 CALM      29.98R
SAINT JOHNS    LGT RAIN  50  32  50 W13       29.95R
WINDOW ROCK    PTSUNNY   44  38  79 E8        30.00R
SHOW LOW       LGT RAIN  37  34  87 SW10      30.01R WCI  30
$$

AZZ023-011800-
GREATER PHOENIX AREA

CITY           SKY/WX    TMP DP  RH WIND       PRES   REMARKS
PHOENIX        PTSUNNY   70  47  43 SE8       29.87R
BUCKEYE        SUNNY     68  46  45 SE10      29.89R
GLENDALE       MOSUNNY   68  48  49 E9        29.89R
LUKE AFB       SUNNY     67  48  49 E7        29.87R
DEER VALLEY    MOSUNNY   68  44  42 VRB5      29.88R
SCOTTSDALE     PTSUNNY   67  44  43 SE9       29.90R
MESA-FALCON    MOSUNNY  N/A N/A N/A SE12      29.87R
MESA-GATEWAY   PTSUNNY   66  45  45 SE12      29.90R
CHANDLER       PTSUNNY   68  46  45 SE7       29.89R
$$

AZZ027-028-011800-
SOUTHWEST MARICOPA COUNTY AND PINAL COUNTY

CITY           SKY/WX    TMP DP  RH WIND       PRES   REMARKS
CASA GRANDE    CLOUDY    63  46  55 E3        29.91S
GILA BEND      FAIR      68  48  48 MISG      29.87R
$$

AZZ503-504-507>509-011800-
SOUTHEAST ARIZONA

CITY           SKY/WX    TMP DP  RH WIND       PRES   REMARKS
TUCSON         CLOUDY    65  37  35 SW7       29.93R
DAVIS-MONTHAN  CLOUDY    65  37  35 SW3       29.91S
RYAN FIELD     SUNNY     66  39  37 NE5       29.92S
NOGALES        MOSUNNY   63  34  33 VRB6      29.94R
SIERRA VISTA   MOSUNNY   61  30  31 NE8       29.97R
DOUGLAS        MOSUNNY   64  32  30 SW12G17   29.95S
SAFFORD        MOSUNNY   66  32  28 SE10G20   29.90S
$$

AZZ020-021-025-026-031-011800-
SOUTHWEST ARIZONA

CITY           SKY/WX    TMP DP  RH WIND       PRES   REMARKS
YUMA           SUNNY     75  45  34 VRB5      29.85R
$$

CAZ031-033-041-043-047-048-061-011800-
SOUTHERN CALIFORNIA

CITY           SKY/WX    TMP DP  RH WIND       PRES   REMARKS
DOWNTOWN L.A.  MOSUNNY   66  51  58 VRB5      29.92R
L.A. AIRPORT   MOSUNNY   64  51  62 VRB3      29.93R
SAN DIEGO      CLOUDY    63  50  62 S7        29.95S
BURBANK        SUNNY     62  48  60 SE6       29.92S
ONTARIO        MOSUNNY   63  46  54 N5        29.93R
RIVERSIDE      SUNNY     64  48  56 VRB3      29.93R
PALM SPRINGS   SUNNY     78  42  27 N3        29.86R
EL CENTRO NAS  SUNNY    N/A N/A N/A NE9       29.85S
IMPERIAL       SUNNY     77  47  34 VRB7      29.83S
BLYTHE         SUNNY     71  46  40 NE6       29.86R
NEEDLES        SUNNY     74  47  38 NE9       29.87R
$$

NVZ020-UTZ003-011800-
SOUTHERN NEVADA-UTAH

CITY           SKY/WX    TMP DP  RH WIND       PRES   REMARKS
LAS VEGAS      MOSUNNY   68  39  34 E6G17     29.88R
SALT LAKE CITY PTSUNNY   57  23  26 NE20G29   30.06F
$$

NMZ009-TXZ055-011800-
NEW MEXICO-WEST TEXAS

CITY           SKY/WX    TMP DP  RH WIND       PRES   REMARKS
ALBUQUERQUE    PTSUNNY   47  30  51 E30G41    30.09R
EL PASO        MOSUNNY   62  35  36 E14       30.03R
$$


........................KEY........................
SKY/WX - SKY CONDITION/WEATHER
TMP    - TEMPERATURE IN FAHRENHEIT
DP     - DEW POINT IN FAHRENHEIT
RH     - RELATIVE HUMIDITY IN PERCENT
WIND   - DIRECTION AND SPEED IN MILES PER HOUR (MPH)
VRB    - VARIABLE WIND DIRECTION
PRES   - MEAN SEA LEVEL PRESSURE IN INCHES OF MERCURY
         F - FALLING PRESSURE   R - RISING PRESSURE
         S - STEADY PRESSURE
VSB    - VISIBILITY IN MILES
HX     - HEAT INDEX IN FAHRENHEIT
WCI    - WIND CHILL INDEX IN FAHRENHEIT
TC     - TEMPERATURE IN CELSIUS WHICH IS ALSO KNOWN AS
         TEMPERATURE IN CENTIGRADE
AFB    - AIR FORCE BASE
         LUKE AFB IS LUKE AIR FORCE BASE
         DAVIS-MONTHAN IS DAVIS-MONTHAN AIR FORCE BASE
NAS    - NAVAL AIR STATION
         EL CENTRO NAS IS EL CENTRO NAVAL AIR STATION
N/A    - NOT AVAILABLE





USA.gov is the U.S. government's official web portal to all federal, state and local government web resources and services.